This is the latest recevied weather packets stored in our database for station/object N5ATR. If no packets are shown the sender has not sent any weather packets the latest 10 day(s).
| Time | Temp. | Humidity | Pressure | Rain* | Wind** | Luminosity | Snow |
|---|---|---|---|---|---|---|---|
| 1777946215 | 17.78° C | 26% | 1010.6 hPa | 0 mm | - | 1 W/m² | - |
| 1777945911 | 17.78° C | 26% | 1010.9 hPa | 0 mm | - | 1 W/m² | - |
| 1777945608 | 17.78° C | 26% | 1010.9 hPa | 0 mm | - | 1 W/m² | - |
| 1777945305 | 17.78° C | 25% | 1010.9 hPa | 0 mm | - | 2 W/m² | - |
| 1777945002 | 17.78° C | 25% | 1010.7 hPa | 0 mm | - | 3 W/m² | - |
| 1777944699 | 17.78° C | 25% | 1010.7 hPa | 0 mm | - | 5 W/m² | - |
| 1777944398 | 17.78° C | 25% | 1010.8 hPa | 0 mm | - | 7 W/m² | - |
| 1777944094 | 17.78° C | 24% | 1010.8 hPa | 0 mm | - | 9 W/m² | - |
| 1777943790 | 17.78° C | 24% | 1010.6 hPa | 0 mm | - | 13 W/m² | - |
| 1777943488 | 17.78° C | 24% | 1010.3 hPa | 0 mm | - | 16 W/m² | - |
| 1777943188 | 17.78° C | 24% | 1010.5 hPa | 0 mm | - | 20 W/m² | - |
| 1777942885 | 17.78° C | 23% | 1010.3 hPa | 0 mm | - | 26 W/m² | - |
| 1777942581 | 17.78° C | 23% | 1010.2 hPa | 0 mm | - | 32 W/m² | - |
| 1777942278 | 17.78° C | 23% | 1010.3 hPa | 0 mm | - | 43 W/m² | - |
| 1777941975 | 18.33° C | 23% | 1010.5 hPa | 0 mm | - | 43 W/m² | - |
| 1777941672 | 18.33° C | 23% | 1010.5 hPa | 0 mm | - | 53 W/m² | - |
| 1777941369 | 18.33° C | 22% | 1010.8 hPa | 0 mm | - | 61 W/m² | - |
| 1777941067 | 18.33° C | 22% | 1010.6 hPa | 0 mm | - | 52 W/m² | - |
| 1777940762 | 18.33° C | 22% | 1010.9 hPa | 0 mm | - | 60 W/m² | - |
| 1777940461 | 18.33° C | 21% | 1010.6 hPa | 0 mm | - | 61 W/m² | - |
| 1777940158 | 18.33° C | 21% | 1010.7 hPa | 0 mm | - | 78 W/m² | - |
| 1777939855 | 18.33° C | 21% | 1010.8 hPa | 0 mm | - | 79 W/m² | - |
| 1777939552 | 18.89° C | 21% | 1010.8 hPa | 0 mm | - | 107 W/m² | - |
| 1777939250 | 18.89° C | 21% | 1010.5 hPa | 0 mm | - | 105 W/m² | - |
| 1777938946 | 18.89° C | 21% | 1010.9 hPa | 0 mm | - | 100 W/m² | - |
* Rain latest hour (hover to see other rain measurements)
** Current wind speed in m/s (hover to see current wind gust speed)